Regional Weather Roundup
Issued by NWS

Home | Current Version | Previous Version | Text Only | Print | Product List | Glossary On
Versions: 1 2 3 4 5 6 7 8 9 10 11 12 13 14 15 16 17 18 19 20 21 22 23 24 25 26 27 28 29 30 31 32 33 34 35 36 37 38 39 40 41 42 43 44 45 46 47 48 49 50
000
ASUS44 KLIX 251711
RWRLA
LOUISIANA WEATHER ROUNDUP
NATIONAL WEATHER SERVICE NEW ORLEANS LA
1200 PM CDT WED MAY 25 2016

NOTE: "FAIR" INDICATES FEW OR NO CLOUDS BELOW 12,000 FEET WITH NO
      SIGNIFICANT WEATHER AND/OR OBSTRUCTIONS TO VISIBILITY.
      SKY/WX - SKY CONDITION AND SIGNIFICANT WEATHER.
      TMP - AIR TEMPERATURE.    DP   - DEWPOINT TEMPERATURE.
      RH  - RELATIVE HUMIDITY.  PRES - PRESSURE.
      HX  - HEAT INDEX.         WCI  - WIND CHILL INDEX.

*  THESE STATIONS ARE NOT NWS OR FAA STATIONS AND ARE NOT UNDER
   NWS QUALITY CONTROL.

LAZ040-048-061>063-065-066-069-251800-
SOUTHEAST LOUISIANA

CITY           SKY/WX    TMP DP  RH WIND       PRES   REMARKS
N.O. AUDUBON     N/A     85  73  65 MISG        N/A
N.O. INTL ARPT PTSUNNY   88  72  58 S9        30.14S
N.O. LAKEFRONT PTSUNNY   86  71  60 SE12      30.15S
N.O. DOWNTOWN* PTSUNNY   86  72  62 S5        30.15S
RESERVE*       FAIR      89  72  57 SE12      30.14R HX  96
SLIDELL        PTSUNNY   83  72  69 S9        30.15S
BATON ROUGE    PTSUNNY   88  70  55 SE13      30.12F
BOOTHVILLE     CLOUDY    81  72  74 E8        30.16S
BELLE CHASSE   PTSUNNY   85  72  65 SE10      30.14S
BOGALUSA*      PTSUNNY   86  70  59 S6        30.16F
GALLIANO*      PTSUNNY   85  74  67 S9        30.15R
NEW ROADS*     PTSUNNY   85  73  67 S9        30.12F
GONZALES*      FAIR      86  71  60 SE8       30.11F
HAMMOND*       CLOUDY    86  68  54 SE9       30.13F
HOUMA*         MOSUNNY   84  75  74 S9G16     30.14S
PORT FOURCHON* PTSUNNY   82  73  74 SE10      30.16R

$$

LAZ041-044-053-054-251800-
SOUTHWEST LOUISIANA

CITY           SKY/WX    TMP DP  RH WIND       PRES   REMARKS
LAKE CHARLES   PTSUNNY   86  75  69 S13G18    30.08S HX  95
LAFAYETTE      PTSUNNY   86  73  65 S12G20    30.10F
PATTERSON      PTSUNNY   86  73  66 S12       30.13R
SALT POINT       N/A     84  77  79 VRB6      30.12R
NEW IBERIA     PTSUNNY   83  74  74 S10       30.12S
CHENAULT AIRPK PTSUNNY   86  75  70 S13       30.08S HX  95

$$

LAZ027-028-251800-
CENTRAL LOUISIANA

CITY           SKY/WX    TMP DP  RH WIND       PRES   REMARKS
FORT POLK      MOSUNNY   87  74  65 S16G23    30.07S
ALEXANDRIA INT PTSUNNY   88  73  61 S13       30.06F HX  95
ALEXANDRIA     CLOUDY    85  73  67 S8        30.09S

$$

LAZ001-002-251800-
NORTHWEST LOUISIANA

CITY           SKY/WX    TMP DP  RH WIND       PRES   REMARKS
SHREVEPORT     PTSUNNY   86  74  67 S13G18    30.03F
BARKSDALE AFB  MOSUNNY   87  72  61 S15       30.04F
DTN SHREVEPORT CLOUDY    85  72  65 S15G21    30.04F

$$

LAZ014-016-251800-
NORTHEAST LOUISIANA

CITY           SKY/WX    TMP DP  RH WIND       PRES   REMARKS
MONROE         CLOUDY    84  73  69 S10       30.09S
TALLULAH       MOSUNNY   85  70  60 S8        30.11F

$$




USA.gov is the U.S. government's official web portal to all federal, state and local government web resources and services.